Regional Weather Roundup
Issued by NWS

Home | Current Version | Previous Version | Text Only | Print | Product List | Glossary On
Versions: 1 2 3 4 5 6 7 8 9 10 11 12 13 14 15 16 17 18 19 20 21 22 23 24 25 26 27 28 29 30 31 32 33 34 35 36 37 38 39 40 41 42 43 44 45 46 47 48 49 50
000
ASUS43 KMPX 172201
RWRMN
WEATHER ROUNDUP FOR MINNESOTA
NATIONAL WEATHER SERVICE TWIN CITIES/CHANHASSEN MN
500 PM CDT WED SEP 17 2014


NOTE: "FAIR" INDICATES FEW OR NO CLOUDS BELOW 12,000 FEET WITH NO
SIGNIFICANT WEATHER AND/OR OBSTRUCTIONS TO VISIBILITY. N/A MEANS
CURRENT SKY AND/OR WEATHER CONDITIONS ARE NOT AVAILABLE.

MNZ060>063-068>070-172300-
   Twin Cities Metro

CITY           SKY/WX    TMP DP  RH WIND       PRES   REMARKS
TWIN CITIES    MOSUNNY   73  51  46 NE5       29.94S
ST PAUL        MOSUNNY   71  54  54 E5        29.95R
CRYSTAL        MOSUNNY   72  53  51 NE3       29.93S
LAKEVILLE      MOSUNNY   73  54  49 W3        29.94S
EDEN PRAIRIE     N/A    N/A N/A N/A MISG        N/A
SOUTH ST PAUL  SUNNY     72  51  48 CALM      29.94S
LAKE ELMO      FAIR      72  55  56 CALM      29.96S
$$
MNZ001>005-007-008-013>017-022>024-027-028-172300-
   Northwest Minnesota

CITY           SKY/WX    TMP DP  RH WIND       PRES   REMARKS
BEMIDJI        SUNNY     64  50  60 NE9       30.00S
HALLOCK        SUNNY     61  45  55 NE10      30.04S
ROSEAU         MOSUNNY   54  43  66 NE10      30.08S
WARROAD        CLOUDY    48  43  81 NE13      30.10R
THIEF RVR FALL SUNNY     63  45  51 NE9G16    30.02S
CROOKSTON      SUNNY     64  48  55 NE8       30.01S
FOSSTON        SUNNY     68  52  56 NE7       30.01R
DETROIT LAKES  SUNNY     72  43  35 N3        29.98S
MOORHEAD       SUNNY     73  45  35 N9        29.97S
PARK RAPIDS    SUNNY     73  45  36 N9        29.96R
MAHNOMEN       FAIR      69  49  49 NE7       29.98R
$$
MNZ006-009>011-018-025>026-172300-
   North Central Minnesota

CITY           SKY/WX    TMP DP  RH WIND       PRES   REMARKS
BAUDETTE       MOSUNNY   53  41  63 NE10      30.07S
FLAG ISLAND    CLOUDY    46  37  71 NE8       30.09S
INTL FALLS     CLOUDY    51  40  65 N9        30.08R
WASKISH        SUNNY     61  46  59 N9        30.03R
LONGVILLE      SUNNY     70  52  52 N5        29.98R
GRAND RAPIDS   PTSUNNY   64  50  59 NE6       29.99R
CRANE LAKE     CLOUDY    52  43  71 NE3       30.07S
ORR            MOSUNNY   57  41  54 CALM      30.02R
COOK           SUNNY     57  45  62 N5        30.03R
WALKER         FAIR      66  51  58 E3        29.98R
$$
MNZ012-019>021-037-172300-
   Northeast Minnesota

CITY           SKY/WX    TMP DP  RH WIND       PRES   REMARKS
DULUTH         CLOUDY    47  41  80 E20       30.03R
ELY            CLOUDY    48  43  81 E7        30.06R
HIBBING        MOSUNNY   67  48  50 NE10      30.00R
EVELETH        CLOUDY    52  45  76 E7        30.04R
DULUTH HARBOR  CLOUDY    50  46  87 NE23      30.05R
TWO HARBORS    CLOUDY    46  39  76 E17       30.04R
SILVER BAY     MOSUNNY   43  43 100 NE8       30.06R
GRAND MARAIS     N/A     45  41  86 NE12G18   30.10R
G MARAIS ARPRT CLOUDY    43  36  75 NE10      30.07R
$$
MNZ029>031-032-039>041-046>048-054>057-064-172300-
   West Central Minnesota

CITY           SKY/WX    TMP DP  RH WIND       PRES   REMARKS
FERGUS FALLS   SUNNY     73  43  33 E7        29.95S
WHEATON        MOSUNNY   72  50  46 NE8       29.96S
MORRIS         MOSUNNY   75  52  43 NE3       29.94R
ALEXANDRIA     SUNNY     72  52  49 CALM      29.97S
ELBOW LAKE     FAIR      73  51  46 E6        29.95S
WADENA         SUNNY     72  46  40 CALM      29.96S
GLENWOOD       MOSUNNY   70  54  56 NE5       29.96S
APPLETON       PTSUNNY   79  52  38 CALM      29.93S
BENSON         SUNNY     73  52  46 NE3       29.94R
ORTONVILLE     SUNNY     75  48  38 NE3       29.94S
MADISON        SUNNY     73  55  53 CALM      29.94R
WILLMAR        FAIR      75  48  38 E5        29.95S
$$
MNZ033>034-036-042>043-049>051-058-059-172300-
   Central Minnesota

CITY           SKY/WX    TMP DP  RH WIND       PRES   REMARKS
ST CLOUD       MOSUNNY   75  53  46 N3        29.95R
SAUK CENTRE    FAIR      72  52  49 E5        29.96S
PAYNESVILLE    MOSUNNY   69  53  56 N9        29.95S
AITKIN         MOSUNNY   75  48  38 CALM      29.95R
PINE RIVER     SUNNY     70  52  52 N9        30.00R
BRAINERD       SUNNY     70  46  42 N6        29.97R
STAPLES        MOSUNNY   72  45  37 NE3       29.96S
LONG PRAIRIE   FAIR      70  52  52 NE5       29.96S
LITTLE FALLS   SUNNY     70  50  49 CALM      29.96S
LITCHFIELD     SUNNY     73  54  49 SE3       29.95S
BUFFALO        PTSUNNY   72  53  50 N7        29.96S
MAPLE LAKE     MOSUNNY   74  57  55 CALM      29.95S
$$
MNZ037-044-045-052-053-172300-
   East Central Minnesota

CITY           SKY/WX    TMP DP  RH WIND       PRES   REMARKS
PRINCETON      SUNNY     73  52  46 CALM      29.95
MORA           SUNNY     70  48  46 CALM      29.97S
CAMBRIDGE      SUNNY     73  55  53 CALM      29.94S
RUSH CITY      SUNNY     72  52  48 CALM      29.96R
MOOSE LAKE     PTSUNNY   55  46  71 E12G20    29.98R
HINCKLEY       FAIR      70  50  49 CALM      29.95S
CLOQUET        CLOUDY    48  43  81 E16G22    30.02R
MCGREGOR       SUNNY     70  48  46 N3        29.96R
$$
MNZ071>073-080-081-089-090-097-098-172300-
   Southwest Minnesota

CITY           SKY/WX    TMP DP  RH WIND       PRES   REMARKS
MONTEVIDEO     MOSUNNY   81  55  41 E5        29.94S
GRANITE FALLS  SUNNY     75  53  46 NE6       29.95R
CANBY          SUNNY     71  58  62 CALM      29.95R
MARSHALL       MOSUNNY   75  52  43 SE7       29.93S
REDWOOD FALLS  MOSUNNY   77  51  40 E6        29.93R
OLIVIA         SUNNY     73  52  46 NE6       29.93S
PIPESTONE      MOSUNNY   75  54  46 NE7       29.94S
WINDOM         MOSUNNY   72  55  56 NE7       29.94R
WORTHINGTON    MOSUNNY   73  52  46 CALM      29.93F
JACKSON        MOSUNNY   75  52  43 S3        29.94S
TRACY          MOSUNNY   75  54  47 CALM      29.94S
SLAYTON        MOSUNNY   73  54  50 CALM      29.95S
$$
MNZ065>067-074>077-082>085-091>093-172300-
   South Central Minnesota

CITY           SKY/WX    TMP DP  RH WIND       PRES   REMARKS
MANKATO        SUNNY     73  52  46 N6        29.94S
NEW ULM        SUNNY     72  55  56 E5        29.93S
ST JAMES       SUNNY     75  54  46 N3        29.94S
FAIRMONT       PTSUNNY   75  48  38 S3        29.93S
GLENCOE        MOSUNNY   74  53  48 NE3       29.94S
FARIBAULT      SUNNY     77  45  31 W3        29.95S
OWATONNA       MOSUNNY   73  52  46 CALM      29.95S
WASECA         SUNNY     72  50  46 E3        29.96S
ALBERT LEA     MOSUNNY   73  54  49 SW3       29.94S
$$
MNZ078>079-086>088-094>096-172300-
   Southeast Minnesota

CITY           SKY/WX    TMP DP  RH WIND       PRES   REMARKS
ROCHESTER      SUNNY     71  50  47 CALM      29.97S
RED WING       MOSUNNY   73  52  46 E5        29.93S
STANTON        PTSUNNY   74  51  44 E3        29.93S
DODGE CENTER   PTSUNNY   72  52  49 NE3       29.96S
WINONA         CLOUDY    72  52  49 SW3       29.96R
AUSTIN         SUNNY     72  52  49 CALM      29.95S
PRESTON        MOSUNNY   69  55  62 CALM      29.97S
$$
ABBREVIATIONS USED IN REMARKS
   TC - TEMPERATURES IN CELSIUS
  WCI - WIND CHILL INDEX
   HX - HEAT INDEX
  VSB - VISIBILITY
$$



USA.gov is the U.S. government's official web portal to all federal, state and local government web resources and services.